Previsão horária em Abadin

Hoje, 17 Abril, Sábado

Tempo Temperatura Precipitação Vento Pressão Humidade
00:00 -1°C° 0 mm 2 m/s 709 mmHg 88%
01:00 -2°C° 0 mm 2 m/s 709 mmHg 89%
02:00 -2°C° 0 mm 2 m/s 709 mmHg 90%
03:00 -3°C° 0 mm 2 m/s 709 mmHg 90%
04:00 -3°C° 0 mm 2 m/s 709 mmHg 91%
05:00 -3°C° 0 mm 2 m/s 709 mmHg 91%
06:00 +1°C° 0 mm 2 m/s 709 mmHg 75%
07:00 +4°C° 0 mm 2 m/s 710 mmHg 58%
08:00 +7°C° 0 mm 2 m/s 710 mmHg 42%
09:00 +9°C° 0 mm 3 m/s 710 mmHg 39%
10:00 +11°C° 0 mm 3 m/s 710 mmHg 36%
11:00 +13°C° 0 mm 3 m/s 710 mmHg 33%
12:00 +13°C° 0 mm 3 m/s 710 mmHg 36%
13:00 +13°C° 0 mm 3 m/s 709 mmHg 39%
14:00 +13°C° 0 mm 3 m/s 709 mmHg 42%
15:00 +12°C° 0 mm 3 m/s 709 mmHg 49%
16:00 +10°C° 0 mm 3 m/s 709 mmHg 57%
17:00 +9°C° 0 mm 3 m/s 709 mmHg 64%
18:00 +7°C° 0 mm 2 m/s 709 mmHg 75%
19:00 +4°C° 0 mm 2 m/s 709 mmHg 86%
20:00 +2°C° 0 mm 2 m/s 710 mmHg 97%
21:00 +2°C° 0 mm 2 m/s 709 mmHg 98%
22:00 +1°C° 0 mm 2 m/s 709 mmHg 98%
23:00 +1°C° 0 mm 2 m/s 709 mmHg 98%

Amanhã, 18 Abril, Domingo

Tempo Temperatura Precipitação Vento Pressão Humidade
00:00 +2°C° 0 mm 1 m/s 709 mmHg 97%
01:00 +2°C° 0 mm 1 m/s 708 mmHg 97%
02:00 +2°C° 0 mm 1 m/s 708 mmHg 96%
03:00 +2°C° 0 mm 1 m/s 708 mmHg 94%
04:00 +2°C° 0 mm 1 m/s 708 mmHg 92%
05:00 +2°C° 0 mm 1 m/s 708 mmHg 90%
06:00 +5°C° 0 mm 1 m/s 708 mmHg 77%
07:00 +9°C° 0 mm 1 m/s 709 mmHg 64%
08:00 +12°C° 0 mm 1 m/s 709 mmHg 51%
09:00 +14°C° 0 mm 1 m/s 709 mmHg 44%
10:00 +16°C° 0 mm 2 m/s 709 mmHg 38%
11:00 +18°C° 0 mm 2 m/s 709 mmHg 32%
12:00 +18°C° 0 mm 2 m/s 709 mmHg 33%
13:00 +17°C° 0 mm 2 m/s 708 mmHg 35%
14:00 +17°C° 0 mm 2 m/s 708 mmHg 36%
15:00 +16°C° 0 mm 2 m/s 708 mmHg 43%
16:00 +15°C° 0 mm 1 m/s 708 mmHg 50%
17:00 +14°C° 0 mm 1 m/s 708 mmHg 57%
18:00 +12°C° 0 mm 1 m/s 708 mmHg 63%
19:00 +11°C° 0 mm 1 m/s 708 mmHg 68%
20:00 +8°C° 0 mm 0 m/s 708 mmHg 73%
21:00 +8°C° 0 mm 0 m/s 708 mmHg 73%
22:00 +9°C° 0 mm 1 m/s 708 mmHg 73%
23:00 +9°C° 0 mm 1 m/s 707 mmHg 73%

Depois de amanhã, 19 Abril, Segunda-feira

Tempo Temperatura Precipitação Vento Pressão Humidade
00:00 +9°C° 0 mm 1 m/s 707 mmHg 72%
01:00 +9°C° 0 mm 1 m/s 707 mmHg 72%
02:00 +9°C° 0 mm 1 m/s 707 mmHg 72%
03:00 +9°C° 0 mm 1 m/s 707 mmHg 73%
04:00 +9°C° 0 mm 1 m/s 707 mmHg 73%
05:00 +9°C° 0 mm 1 m/s 707 mmHg 74%
06:00 +9°C° 0.1 mm 1 m/s 707 mmHg 73%
07:00 +10°C° 0.1 mm 1 m/s 707 mmHg 71%
08:00 +11°C° 0.1 mm 1 m/s 707 mmHg 70%
09:00 +11°C° 0.3 mm 1 m/s 707 mmHg 74%
10:00 +11°C° 0.3 mm 1 m/s 707 mmHg 78%
11:00 +11°C° 0.3 mm 1 m/s 706 mmHg 83%
12:00 +12°C° 0.1 mm 1 m/s 706 mmHg 79%
13:00 +12°C° 0.1 mm 1 m/s 706 mmHg 76%
14:00 +13°C° 0.1 mm 1 m/s 705 mmHg 72%
15:00 +12°C° 0.4 mm 1 m/s 705 mmHg 80%
16:00 +12°C° 0.4 mm 1 m/s 705 mmHg 87%
17:00 +11°C° 0.4 mm 1 m/s 705 mmHg 94%
18:00 +10°C° 0.6 mm 1 m/s 705 mmHg 96%
19:00 +9°C° 0.6 mm 1 m/s 705 mmHg 97%
20:00 +8°C° 0.6 mm 1 m/s 705 mmHg 99%
21:00 +9°C° 0.3 mm 1 m/s 705 mmHg 99%
22:00 +9°C° 0.3 mm 1 m/s 705 mmHg 99%
23:00 +9°C° 0.3 mm 1 m/s 704 mmHg 99%

20 Abril, Terça-feira

Tempo Temperatura Precipitação Vento Pressão Humidade
00:00 +9°C° 0.3 mm 1 m/s 704 mmHg 99%
01:00 +9°C° 0.3 mm 1 m/s 704 mmHg 99%
02:00 +9°C° 0.3 mm 1 m/s 704 mmHg 99%
03:00 +9°C° 0.4 mm 1 m/s 704 mmHg 99%
04:00 +9°C° 0.4 mm 1 m/s 704 mmHg 99%
05:00 +9°C° 0.4 mm 1 m/s 704 mmHg 99%
06:00 +9°C° 0.5 mm 1 m/s 704 mmHg 98%
07:00 +9°C° 0.5 mm 1 m/s 704 mmHg 98%
08:00 +10°C° 0.5 mm 1 m/s 705 mmHg 98%
09:00 +10°C° 0.9 mm 1 m/s 705 mmHg 97%
10:00 +10°C° 0.9 mm 1 m/s 705 mmHg 96%
11:00 +11°C° 0.9 mm 1 m/s 705 mmHg 95%
12:00 +11°C° 0.7 mm 1 m/s 705 mmHg 93%
13:00 +11°C° 0.7 mm 1 m/s 705 mmHg 92%
14:00 +12°C° 0.7 mm 1 m/s 705 mmHg 90%
15:00 +11°C° 0.4 mm 1 m/s 705 mmHg 91%
16:00 +11°C° 0.4 mm 1 m/s 705 mmHg 92%
17:00 +10°C° 0.4 mm 1 m/s 705 mmHg 93%
18:00 +10°C° 0.1 mm 1 m/s 706 mmHg 95%
19:00 +9°C° 0.1 mm 1 m/s 706 mmHg 96%
20:00 +8°C° 0.1 mm 1 m/s 706 mmHg 97%
21:00 +8°C° 0 mm 1 m/s 706 mmHg 97%
22:00 +8°C° 0 mm 1 m/s 706 mmHg 97%
23:00 +8°C° 0 mm 1 m/s 706 mmHg 97%

21 Abril, Quarta-feira

Tempo Temperatura Precipitação Vento Pressão Humidade
00:00 +7°C° 0 mm 1 m/s 706 mmHg 97%
01:00 +7°C° 0 mm 1 m/s 706 mmHg 97%
02:00 +7°C° 0 mm 1 m/s 706 mmHg 97%
03:00 +7°C° 0.1 mm 1 m/s 706 mmHg 97%
04:00 +7°C° 0.1 mm 1 m/s 706 mmHg 97%
05:00 +7°C° 0.1 mm 1 m/s 706 mmHg 98%
06:00 +8°C° 0.1 mm 1 m/s 706 mmHg 94%
07:00 +7°C° 0.1 mm 2 m/s 707 mmHg 91%
08:00 +8°C° 0.1 mm 2 m/s 707 mmHg 88%
09:00 +9°C° 0.1 mm 2 m/s 707 mmHg 79%
10:00 +10°C° 0.1 mm 2 m/s 707 mmHg 71%
11:00 +12°C° 0.1 mm 3 m/s 707 mmHg 62%
12:00 +12°C° 0 mm 3 m/s 707 mmHg 62%
13:00 +12°C° 0 mm 3 m/s 707 mmHg 62%
14:00 +12°C° 0 mm 3 m/s 707 mmHg 61%
15:00 +11°C° 0 mm 3 m/s 707 mmHg 65%
16:00 +10°C° 0 mm 3 m/s 707 mmHg 69%
17:00 +10°C° 0 mm 3 m/s 707 mmHg 73%
18:00 +8°C° 0 mm 2 m/s 707 mmHg 79%
19:00 +7°C° 0 mm 2 m/s 707 mmHg 86%
20:00 +6°C° 0 mm 2 m/s 708 mmHg 93%
21:00 +6°C° 0 mm 2 m/s 708 mmHg 94%
22:00 +6°C° 0 mm 2 m/s 707 mmHg 95%
23:00 +6°C° 0 mm 1 m/s 707 mmHg 96%

22 Abril, Quinta-feira

Tempo Temperatura Precipitação Vento Pressão Humidade
00:00 +6°C° 0 mm 1 m/s 707 mmHg 96%
01:00 +5°C° 0 mm 1 m/s 707 mmHg 97%
02:00 +5°C° 0 mm 1 m/s 707 mmHg 97%
03:00 +5°C° 0 mm 1 m/s 707 mmHg 96%
04:00 +5°C° 0 mm 1 m/s 707 mmHg 96%
05:00 +5°C° 0 mm 1 m/s 707 mmHg 96%
06:00 +8°C° 0 mm 1 m/s 707 mmHg 82%
07:00 +11°C° 0 mm 1 m/s 708 mmHg 68%
08:00 +14°C° 0 mm 1 m/s 708 mmHg 54%
09:00 +16°C° 0 mm 1 m/s 708 mmHg 48%
10:00 +17°C° 0 mm 2 m/s 708 mmHg 41%
11:00 +19°C° 0 mm 2 m/s 708 mmHg 35%
12:00 +19°C° 0 mm 2 m/s 708 mmHg 35%
13:00 +19°C° 0 mm 2 m/s 707 mmHg 36%
14:00 +19°C° 0 mm 2 m/s 707 mmHg 37%
15:00 +18°C° 0 mm 2 m/s 707 mmHg 45%
16:00 +17°C° 0 mm 2 m/s 707 mmHg 53%
17:00 +16°C° 0 mm 2 m/s 707 mmHg 61%
18:00 +13°C° 0 mm 2 m/s 707 mmHg 71%
19:00 +11°C° 0 mm 1 m/s 707 mmHg 80%
20:00 +9°C° 0 mm 1 m/s 707 mmHg 90%
21:00 +9°C° 0 mm 1 m/s 707 mmHg 89%
22:00 +9°C° 0 mm 1 m/s 707 mmHg 88%
23:00 +8°C° 0 mm 1 m/s 706 mmHg 88%
Mostrar mais